Date String (YYYY-MM-DD hh:mm:ss) UTC,Instrument flags,Ambient pressure (hPa),Sample flow (lpm),Bypass flow (lpm),Sample temperature (°C),Ambient temperature (°C),ASC tube jacket temperature (°C),LED temperature (°C),Box temperature (°C),Sample RH (%),Span deviation,Mass concentration (μg/m³),Mass concentration (μg/m³),Mass concentration (μg/m³)
DateTimeUTC,F1_M11,P_M11,Q1_M11,Q2_M11,T1_M11,T2_M11,T3_M11,T4_M11,T5_M11,U1_M11,ZSPAN_M11,X2_M11,X0_M11,X1_M11
2022-03-03 09:00:00,,0827.8,4.99,0.00,27.9,27.1,00.0,36.9,29.6,09.1,0000.0,0000.96,0001.59,0000.74
2022-03-03 09:01:00,,0827.8,5.00,0.00,27.9,27.1,00.0,36.9,29.6,09.0,0000.0,0000.96,0001.54,0000.74
2022-03-03 09:02:00,,0827.8,5.00,0.00,27.9,27.1,00.0,36.9,29.6,09.1,0000.0,0000.98,0001.68,0000.76
2022-03-03 09:03:00,,0827.8,5.00,0.00,27.9,27.1,00.0,36.9,29.7,09.0,0000.0,0001.00,0001.89,0000.78
2022-03-03 09:04:00,,0827.8,5.00,0.00,27.9,27.1,00.0,36.9,29.6,09.0,0000.0,0001.03,0002.40,0000.82
2022-03-03 09:05:00,,0827.7,5.01,0.00,27.9,27.1,00.0,36.9,29.6,08.9,0000.0,0001.02,0002.37,0000.83
2022-03-03 09:06:00,,0827.7,5.01,0.00,27.9,27.1,00.0,36.9,29.6,09.0,0000.0,0001.00,0002.32,0000.81
2022-03-03 09:07:00,,0827.7,4.98,0.00,27.9,27.1,00.0,36.9,29.6,08.9,0000.0,0000.98,0002.30,0000.80
2022-03-03 09:08:00,,0827.7,5.00,0.00,27.8,27.1,00.0,36.9,29.6,09.0,0000.0,0000.96,0002.28,0000.79
2022-03-03 09:09:00,,0827.7,5.00,0.00,27.8,27.1,00.0,36.9,29.6,09.0,0000.0,0000.96,0002.27,0000.78
2022-03-03 09:10:00,,0827.7,5.00,0.00,27.8,27.1,00.0,36.9,29.6,08.9,0000.0,0000.95,0002.26,0000.76
2022-03-03 09:11:00,,0827.7,5.01,0.00,27.8,27.1,00.0,36.9,29.6,08.9,0000.0,0000.91,0002.16,0000.72
2022-03-03 09:12:00,,0827.7,5.01,0.00,27.8,27.1,00.0,36.9,29.6,08.9,0000.0,0000.88,0002.53,0000.71
2022-03-03 09:13:00,,0827.7,5.00,0.00,27.8,27.1,00.0,36.9,29.6,09.0,0000.0,0000.85,0002.82,0000.71
2022-03-03 09:14:00,,0827.7,4.99,0.00,27.8,27.1,00.0,36.9,29.6,09.0,0000.0,0000.80,0002.68,0000.68
2022-03-03 09:15:00,,0827.7,4.99,0.00,27.8,27.0,00.0,36.9,29.6,09.0,0000.0,0000.75,0002.13,0000.65
2022-03-03 09:16:00,,0827.7,5.00,0.00,27.8,27.0,00.0,36.9,29.6,09.1,0000.0,0000.73,0002.17,0000.62
2022-03-03 09:17:00,,0827.7,5.00,0.00,27.8,27.0,00.0,36.9,29.6,09.1,0000.0,0000.79,0002.38,0000.61
2022-03-03 09:18:00,,0827.7,5.00,0.00,27.8,27.0,00.0,36.8,29.6,09.0,0000.0,0000.82,0002.48,0000.62
2022-03-03 09:19:00,,0827.7,4.98,0.00,27.8,27.0,00.0,36.8,29.6,09.0,0000.0,0000.86,0002.57,0000.63
2022-03-03 09:20:00,,0827.6,5.01,0.00,27.8,27.0,00.0,36.8,29.6,08.9,0000.0,0000.91,0002.65,0000.64
2022-03-03 09:21:00,,0827.6,5.01,0.00,27.8,27.0,00.0,36.8,29.6,08.9,0000.0,0000.93,0004.19,0000.66
2022-03-03 09:22:00,,0827.7,5.00,0.00,27.8,27.0,00.0,36.8,29.5,09.0,0000.0,0000.96,0004.41,0000.67
2022-03-03 09:23:00,,0827.7,5.00,0.00,27.8,27.0,00.0,36.8,29.5,09.1,0000.0,0000.97,0004.84,0000.67
2022-03-03 09:24:00,,0827.6,5.00,0.00,27.8,27.0,00.0,36.8,29.5,09.1,0000.0,0000.94,0004.55,0000.65
2022-03-03 09:25:00,,0827.6,5.00,0.00,27.8,27.0,00.0,36.8,29.5,09.0,0000.0,0000.94,0004.38,0000.64
2022-03-03 09:26:00,,0827.7,5.00,0.00,27.8,27.0,00.0,36.8,29.5,09.0,0000.0,0000.94,0004.33,0000.64
2022-03-03 09:27:00,,0827.6,5.00,0.00,27.7,26.9,00.0,36.8,29.5,09.1,0000.0,0000.97,0004.39,0000.65
2022-03-03 09:28:00,,0827.6,5.00,0.00,27.7,26.9,00.0,36.8,29.5,09.2,0000.0,0000.95,0004.31,0000.66
2022-03-03 09:29:00,,0827.6,5.00,0.00,27.7,26.9,00.0,36.8,29.5,09.2,0000.0,0000.91,0004.21,0000.65
2022-03-03 09:30:00,,0827.7,5.00,0.00,27.7,26.9,00.0,36.8,29.5,09.1,0000.0,0000.88,0004.20,0000.65
2022-03-03 09:31:00,,0827.6,5.00,0.00,27.7,26.9,00.0,36.8,29.4,09.0,0000.0,0000.87,0004.20,0000.64
2022-03-03 09:32:00,,0827.6,5.01,0.00,27.7,26.9,00.0,36.8,29.4,08.9,0000.0,0000.85,0002.68,0000.63
2022-03-03 09:33:00,,0827.6,5.00,0.00,27.7,26.9,00.0,36.8,29.4,09.1,0000.0,0000.79,0002.36,0000.60
2022-03-03 09:34:00,,0827.6,5.00,0.00,27.7,26.9,00.0,36.7,29.4,09.5,0000.0,0000.77,0001.42,0000.59
2022-03-03 09:35:00,,0827.5,5.00,0.00,27.7,26.9,00.0,36.7,29.4,09.4,0000.0,0000.77,0001.37,0000.58
2022-03-03 09:36:00,,0827.5,5.00,0.00,27.7,26.9,00.0,36.7,29.4,09.2,0000.0,0000.79,0001.42,0000.58
2022-03-03 09:37:00,,0827.5,5.00,0.00,27.7,26.9,00.0,36.7,29.4,09.1,0000.0,0000.83,0001.56,0000.58
2022-03-03 09:38:00,,0827.5,4.99,0.00,27.7,26.9,00.0,36.7,29.4,09.1,0000.0,0000.81,0001.52,0000.57
2022-03-03 09:39:00,,0827.5,5.00,0.00,27.7,26.9,00.0,36.7,29.4,09.1,0000.0,0000.79,0001.39,0000.56
2022-03-03 09:40:00,,0827.5,4.99,0.00,27.6,26.8,00.0,36.7,29.4,09.1,0000.0,0000.80,0001.43,0000.57
2022-03-03 09:41:00,,0827.5,5.00,0.00,27.6,26.8,00.0,36.7,29.4,09.3,0000.0,0000.79,0001.34,0000.56
2022-03-03 09:42:00,,0827.5,5.01,0.00,27.6,26.8,00.0,36.7,29.4,09.3,0000.0,0000.75,0001.28,0000.54
2022-03-03 09:43:00,,0827.5,4.99,0.00,27.6,26.8,00.0,36.7,29.4,09.3,0000.0,0000.73,0001.32,0000.52
2022-03-03 09:44:00,,0827.5,4.99,0.00,27.6,26.8,00.0,36.7,29.4,09.2,0000.0,0000.75,0001.36,0000.53
2022-03-03 09:45:00,,0827.5,5.00,0.00,27.6,26.8,00.0,36.7,29.3,09.2,0000.0,0000.75,0001.33,0000.52
2022-03-03 09:46:00,,0827.5,5.00,0.00,27.6,26.8,00.0,36.7,29.3,09.2,0000.0,0000.76,0001.33,0000.53
2022-03-03 09:47:00,,0827.5,5.00,0.00,27.6,26.7,00.0,36.6,29.3,09.2,0000.0,0000.73,0001.27,0000.52
2022-03-03 09:48:00,,0827.5,5.00,0.00,27.5,26.7,00.0,36.6,29.3,09.3,0000.0,0000.74,0001.57,0000.51
2022-03-03 09:49:00,,0827.4,5.00,0.00,27.5,26.7,00.0,36.6,29.3,09.2,0000.0,0000.72,0001.78,0000.51
2022-03-03 09:50:00,,0827.4,5.00,0.00,27.5,26.7,00.0,36.6,29.3,09.2,0000.0,0000.73,0001.79,0000.51
2022-03-03 09:51:00,,0827.4,5.00,0.00,27.5,26.7,00.0,36.6,29.3,09.1,0000.0,0000.71,0001.75,0000.50
2022-03-03 09:52:00,,0827.4,5.00,0.00,27.5,26.7,00.0,36.6,29.3,09.2,0000.0,0000.71,0001.74,0000.50
2022-03-03 09:53:00,,0827.4,5.00,0.00,27.5,26.7,00.0,36.6,29.2,09.6,0000.0,0000.73,0001.78,0000.52
2022-03-03 09:54:00,,0827.3,5.00,0.00,27.5,26.7,00.0,36.6,29.2,09.6,0000.0,0000.75,0001.87,0000.53
2022-03-03 09:55:00,,0827.4,4.99,0.00,27.5,26.7,00.0,36.6,29.3,09.6,0000.0,0000.77,0001.89,0000.53
2022-03-03 09:56:00,,0827.3,5.00,0.00,27.5,26.7,00.0,36.6,29.2,09.7,0000.0,0000.81,0001.94,0000.55
2022-03-03 09:57:00,,0827.3,5.00,0.00,27.5,26.7,00.0,36.6,29.2,09.8,0000.0,0000.81,0001.91,0000.57
2022-03-03 09:58:00,,0827.3,5.00,0.00,27.5,26.7,00.0,36.6,29.2,09.6,0000.0,0000.85,0002.04,0000.60
2022-03-03 09:59:00,,0827.3,5.01,0.00,27.5,26.7,00.0,36.6,29.3,09.7,0000.0,0000.85,0001.83,0000.63
